Weather in Domachi

Russia / Lipetsk Oblast     53°20′13″N   39°26′59″E
temp.,
°C
wind,
m/s
gust,
m/s
humid.,
%
clouds,
%
prec.,
mm/h
press.,
hPa
HPBL,
m
14 april, wed
wed1400:00+12se513555 0.0 1023281
03:00+10sse376656 0.0 1023116
06:00+9se3668100 0.0 1022100
09:00+13se4854100 0.0 1021273
12:00+18se683196 0.0 1020885
15:00+19se78257 0.0 10182031
18:00+19se473265 0.0 1017195
21:00+15se3844100 0.0 1017138
15 april, thu
thu1500:00+13se3115471 0.0 1016241
03:00+11ese4759100 0.0 1016107
06:00+10ese3765100 0.0 1016118
09:00+14ese465399 0.0 1015302
12:00+18se5738100 0.0 10141115
15:00+20se463286 0.0 10141960
18:00+18se4841100 0.0 1013344
21:00+13ssw3774100 0.4 1015246
16 april, fri
fri1600:00+12ene2274100 0.1 101532
03:00+11e227993 0.1 101631
06:00+11sw1280100 0.0 101615
09:00+12nnw2270100 0.0 1017316
12:00+15ne3361100 0.0 1017724
15:00+17e3454100 0.2 10171009
18:00+13s71177100 2.4 1017423
21:00+12se2781100 4.8 1018272
17 april, sat
sat1700:00+11ene4886100 1.6 1018222
03:00+10ene479275 1.8 1018175
06:00+9ne589578 0.0 1019249
09:00+11ene687898 0.1 1019517
12:00+16ene81058100 0.0 10181301
15:00+18ene9124686 0.9 10172600
18:00+11s4683100 2.1 1020342
21:00+12ne61273100 2.4 1020653
18 april, sun
sun1800:00+10ene71369100 0.0 1021576
03:00+8ene6116999 0.0 1022506
06:00+6ne6116816 0.0 1024464
09:00+9ene710555 0.0 1024676
12:00+12ene78420 0.0 10251371
15:00+14ne78365 0.0 10251781
18:00+13ne68435 0.0 10251269
21:00+9ne6125333 0.0 1027398